Location: Linz
(48.3300°N, 14.3000°E)
Time: 06:42:50
(UTC+01:00)

YUBILEINY - Visible Passes

Search period start: 18 November 2018 00:00
Search period end: 28 November 2018 00:00
Orbit: 1479 x 1508 km, 82.5° (Epoch: 17 November)

Date Brightness Start Highest point End Pass type
(mag) Time Alt. Az. Time Alt. Az. Time Alt. Az.
18 Nov ? 01:41:23 10° N 01:42:25 14° N 01:42:25 14° N visible
18 Nov ? 16:45:13 10° WSW 16:52:43 30° WNW 17:00:18 10° N visible
19 Nov ? 00:51:56 10° N 00:52:59 14° N 00:52:59 14° N visible
19 Nov ? 17:58:29 10° WNW 18:02:04 13° NW 18:05:42 10° NNW visible
20 Nov ? 00:02:44 10° N 00:03:35 13° N 00:03:35 13° N visible
20 Nov ? 01:59:06 10° NNW 01:59:28 11° NNW 01:59:28 11° NNW visible
20 Nov ? 17:04:44 10° WSW 17:11:06 21° NW 17:17:32 10° N visible
20 Nov ? 23:13:59 10° NNE 23:14:12 10° NNE 23:14:12 10° NNE visible
21 Nov ? 01:09:30 10° N 01:10:05 12° N 01:10:05 12° N visible
22 Nov ? 00:20:08 10° N 00:20:43 12° N 00:20:43 12° N visible
22 Nov ? 17:25:04 10° W 17:29:43 15° NW 17:34:23 10° NNW visible
22 Nov ? 23:31:01 10° N 23:31:21 11° N 23:31:21 11° N visible
23 Nov ? 01:27:11 10° N 01:27:15 10° N 01:27:15 10° N visible
24 Nov ? 00:37:39 10° N 00:37:55 11° N 00:37:55 11° N visible
24 Nov ? 17:48:00 10° NW 17:48:34 10° NW 17:49:09 10° NW visible
24 Nov ? 23:48:20 10° N 23:48:35 11° N 23:48:35 11° N visible
25 Nov ? 16:51:56 10° W 16:57:23 17° NW 17:02:53 10° NNW visible
27 Nov ? 00:05:48 10° N 00:05:52 10° N 00:05:52 10° N visible
27 Nov ? 17:13:07 10° WNW 17:16:09 12° NW 17:19:12 10° NNW visible
27 Nov ? 23:16:34 10° N 23:16:34 10° N 23:16:34 10° N visible
